Regional Weather Roundup
Issued by NWS Midland/Odessa, TX

Skip options and go directly to product.
Home | Oldest Version | Previous Version | Current Version | All | Text Only | Save Text | Print | Product List | Glossary Off

Skip product version selection by date and time.   

223
ASUS44 KMAF 310310
RWRMAF
MIDLAND AREA WEATHER ROUNDUP
NATIONAL WEATHER SERVICE MIDLAND TX
1000 PM CDT MON MAR 30 2015

...IN SOUTHWEST TEXAS AND SOUTHEAST NEW MEXICO...

CITY           SKY/WX    TMP DP  RH WIND       PRES   REMARKS
ALPINE         CLOUDY    65  46  49 W7        30.21R
ANDREWS        FAIR      67  54  61 S6        30.08S
ARTESIA        CLOUDY    63  50  63 S8        30.09R
BIG SPRING     CLOUDY    74  52  45 S8        30.07S
CARLSBAD       CLOUDY    60  50  69 SW7       30.07R
DRYDEN           N/A     65  60  84 N6        30.08S
FORT STOCKTON  CLOUDY    72  53  51 SE10      30.08R
GUAD PASS      CLOUDY    66  40  38 E8        30.20R
HOBBS          CLOUDY    61  48  63 S7        30.11R
MARFA          CLOUDY    63  36  36 NE6       30.19R
MIDLAND AIRPK  CLOUDY    76  50  40 S15       30.07R
MIDLAND INTL   CLOUDY    73  52  47 S13       30.07R
ODESSA         CLOUDY    74  51  44 S14       30.08R
PECOS          CLOUDY    67  54  61 CALM      30.04S
PRESIDIO       FAIR      74  42  31 NW3       30.03S
SEMINOLE       CLOUDY    65  52  64 SW6       30.10R
SNYDER         CLOUDY    71  52  51 S9        30.04S
WINK           CLOUDY    65  53  65 NE7       30.04S
$$
...OTHER STATIONS IN TEXAS...

CITY           SKY/WX    TMP DP  RH WIND       PRES   REMARKS
ABILENE        MOCLDY    69  54  58 SE10      30.03S
AMARILLO       MOCLDY    64  40  41 S10       30.05R
AUSTIN         PTCLDY    70  63  78 S12       30.08R
BROWNSVILLE    CLEAR     69  67  93 SE6       30.11R
CORPUS CHRISTI PTCLDY    70  66  87 SE15      30.10R
DALLAS FTW     CLOUDY    68  63  84 SE8       30.04R
DEL RIO        CLEAR     70  62  76 E6        30.03S
EL PASO        MOCLDY    76  27  16 S7        30.06R
HOUSTON INT    PTCLDY    72  61  68 S9        30.11R
LUBBOCK        MOCLDY    64  49  57 SW6       30.07R
SAN ANGELO     CLOUDY    75  54  47 S12       30.03R
SAN ANTONIO    MOCLDY    73  64  73 S12       30.10R
WACO           PTCLDY    67  62  84 S8        30.06R
WICHITA FALLS  NOT AVBL
$$
...OTHER LOCATIONS IN NEW MEXICO...

CITY           SKY/WX    TMP DP  RH WIND       PRES   REMARKS
ALAMAGORDO     MOCLDY    68  27  21 E6        30.09S
ALBUQUERQUE    MOCLDY    64  20  18 E9        30.12R
CANNON AFB     CLEAR     60  42  51 SW8       30.10R
CLOVIS         CLEAR     57  41  54 SW7       30.09R
HOLLOMAN AFB   MOCLDY    72  26  18 E2        30.07R
ROSWELL        MOCLDY    64  47  53 SW7       30.09R
RUIDOSO        PTCLDY    55  25  30 SW9       30.26R
SANTA FE       MOCLDY    56  21  25 CALM      30.18R
TRUTH OR CONSE MOCLDY    70  29  21 E7        30.11R
TUCUMCARI      PTCLDY    61  31  32 S12       30.05R
$$

USA.gov is the U.S. government's official web portal to all federal, state and local government web resources and services.